WetterOnline ( https://www.wetteronline.de )

Wetter aktuell F��rth, Faustenbach

Aktuelles Wetter: Mannheim (100m)

6-stündlich | Neueste Meldungen
Ortszeit Temperatur Wetter
Sa, 04.12. 13:00 5.2° C leichter Regen
Sa, 04.12. 7:00 2.3° C leichter Regen
Sa, 04.12. 1:00 3.2° C bedeckt
Fr, 03.12. 19:00 2.5° C bedeckt
Fr, 03.12. 13:00 2.2° C bedeckt
Fr, 03.12. 7:00 -0.7° C wolkenlos
Fr, 03.12. 1:00 2.6° C leichter Schneefall
Do, 02.12. 19:00 3.4° C bedeckt
Ortszeit Temperatur Wetter
Sa, 04.12. 13:00 5.2° C leichter Regen
Sa, 04.12. 12:50 5.2° C leichter Regen
Sa, 04.12. 12:40 5.2° C leichter Regen
Sa, 04.12. 12:30 5.0° C leichter Regen
Sa, 04.12. 12:20 5.0° C leichter Regen
Sa, 04.12. 12:10 4.9° C Sprühregen
Sa, 04.12. 12:00 4.7° C Regen
Sa, 04.12. 11:30 4.7° C Sprühregen
Sa, 04.12. 11:00 4.4° C Sprühregen
Sa, 04.12. 10:30 4.1° C Sprühregen
Sa, 04.12. 10:00 3.9° C Sprühregen
Ortszeit Relative Feuchte Sichtweite
Sa, 04.12. 13:00 99% 4.4 km
Sa, 04.12. 7:00 99% 6 km
Sa, 04.12. 1:00 70% 55 km
Fr, 03.12. 19:00 81% 35 km
Fr, 03.12. 13:00 78% 40 km
Fr, 03.12. 7:00 92% 23 km
Fr, 03.12. 1:00 82% 35 km
Do, 02.12. 19:00 77% >70 km
Ortszeit Relative Feuchte Sichtweite
Sa, 04.12. 13:00 99% 4.4 km
Sa, 04.12. 12:50 99% -
Sa, 04.12. 12:40 99% -
Sa, 04.12. 12:30 99% 1.6 km
Sa, 04.12. 12:20 99% -
Sa, 04.12. 12:10 98% -
Sa, 04.12. 12:00 99% 1.3 km
Sa, 04.12. 11:30 99% 4.4 km
Sa, 04.12. 11:00 99% 4.6 km
Sa, 04.12. 10:30 99% 3.0 km
Sa, 04.12. 10:00 99% 3.9 km
Ortszeit Niederschlagsmenge Niederschlagsart
Sa, 04.12. 13:00 3 l/m2 in 6 Std. Regen
Sa, 04.12. 7:00 7 l/m2 in 12 Std. Schnee, Regen
Sa, 04.12. 1:00 0.0 l/m2 in 6 Std. -
Fr, 03.12. 19:00 0.0 l/m2 in 12 Std. -
Fr, 03.12. 13:00 0.0 l/m2 in 6 Std. -
Fr, 03.12. 7:00 0.1 l/m2 in 12 Std. Schnee, Regen
Fr, 03.12. 1:00 0.1 l/m2 in 6 Std. Schnee, Regen
Do, 02.12. 19:00 5 l/m2 in 12 Std. Regen
Ortszeit Niederschlagsmenge Niederschlagsart
Sa, 04.12. 13:00 1.4 l/m2 in 1 Std. Regen
Sa, 04.12. 12:50 keine Meldung -
Sa, 04.12. 12:40 keine Meldung -
Sa, 04.12. 12:30 0.7 l/m2 in 1 Std. -
Sa, 04.12. 12:20 keine Meldung -
Sa, 04.12. 12:10 keine Meldung -
Sa, 04.12. 12:00 0.8 l/m2 in 1 Std. Regen
Sa, 04.12. 11:30 0.1 l/m2 in 1 Std. -
Sa, 04.12. 11:00 0.3 l/m2 in 1 Std. Regen
Sa, 04.12. 10:30 0.2 l/m2 in 1 Std. -
Sa, 04.12. 10:00 0.2 l/m2 in 1 Std. Regen
Ortszeit Stärke Spitze Richtung
km/h Bft. km/h Grad Sektor
Sa, 04.12. 13:00 0 0 11 - -
Sa, 04.12. 7:00 4 1 22 190° S
Sa, 04.12. 1:00 11 2 29 160° S
Fr, 03.12. 19:00 13 3 30 150° SO
Fr, 03.12. 13:00 14 3 32 180° S
Fr, 03.12. 7:00 13 3 17 150° SO
Fr, 03.12. 1:00 9 2 22 280° W
Do, 02.12. 19:00 7 2 36 280° W
Ortszeit Stärke Spitze Richtung
km/h Bft. km/h Grad Sektor
Sa, 04.12. 13:00 0 0 4 - -
Sa, 04.12. 12:50 2 1 - 150° SO
Sa, 04.12. 12:40 2 1 - 150° SO
Sa, 04.12. 12:30 0 0 4 - -
Sa, 04.12. 12:20 0 0 - - -
Sa, 04.12. 12:10 0 0 - 290° W
Sa, 04.12. 12:00 0 0 4 - -
Sa, 04.12. 11:30 0 0 4 - -
Sa, 04.12. 11:00 4 1 7 160° S
Sa, 04.12. 10:30 4 1 7 170° S
Sa, 04.12. 10:00 6 1 9 160° S
Ortszeit Untergrenze Bedeckung Gattung
total tief tief mittel hoch
Sa, 04.12. 13:00 60 m 8/8 8/8 - - -
Sa, 04.12. 7:00 390 m 7/8 8/8 - - -
Sa, 04.12. 1:00 720 m 8/8 8/8 - - -
Fr, 03.12. 19:00 1500 m 8/8 8/8 - - -
Fr, 03.12. 13:00 510 m 8/8 8/8 - - -
Fr, 03.12. 7:00 - 0/8 0/8 - - -
Fr, 03.12. 1:00 870 m 8/8 8/8 - - -
Do, 02.12. 19:00 1380 m 8/8 8/8 - - -
Ortszeit Bedeckungsgrad in Achtel und Wolkenuntergrenze
Sa, 04.12. 13:00 7(60m) 8(270m)
Sa, 04.12. 12:50 7(60m) 8(270m)
Sa, 04.12. 12:40 7(60m) 8(300m)
Sa, 04.12. 12:30 7(60m)
Sa, 04.12. 12:20 7(60m)
Sa, 04.12. 12:10 8(60m)
Sa, 04.12. 12:00 7(60m)
Sa, 04.12. 11:30 8(60m)
Sa, 04.12. 11:00 7(90m) 8(240m)
Sa, 04.12. 10:30 1(120m) 8(240m)
Sa, 04.12. 10:00 4(60m) 8(240m)
Ortszeit Luftdruck NN (hPa) Tendenz (hPa in 3 Std.)
Sa, 04.12. 13:00 997 - 2,4
Sa, 04.12. 7:00 1001 - 2,7
Sa, 04.12. 1:00 1006 - 3,0
Fr, 03.12. 19:00 1012 - 1,8
Fr, 03.12. 13:00 1015 - 1,4
Fr, 03.12. 7:00 1015 + 1,3
Fr, 03.12. 1:00 1012 + 2,1
Do, 02.12. 19:00 1007 + 3,2
Ortszeit Luftdruck NN (hPa) Tendenz (hPa in 3 Std.)
Sa, 04.12. 13:00 997 - 2,4
Sa, 04.12. 12:50 997 keine Meldung
Sa, 04.12. 12:40 997 keine Meldung
Sa, 04.12. 12:30 998 - 2,0
Sa, 04.12. 12:20 998 keine Meldung
Sa, 04.12. 12:10 998 keine Meldung
Sa, 04.12. 12:00 998 - 1,5
Sa, 04.12. 11:30 999 - 1,2
Sa, 04.12. 11:00 999 - 0,9
Sa, 04.12. 10:30 1000 - 0,9
Sa, 04.12. 10:00 1000 - 1,1
Ortszeit Schneehöhe (cm)
Sa, 04.12. 13:00 0
Sa, 04.12. 7:00 0
Sa, 04.12. 1:00 0
Fr, 03.12. 19:00 0
Fr, 03.12. 13:00 0
Fr, 03.12. 7:00 0
Fr, 03.12. 1:00 0
Do, 02.12. 19:00 0
Ortszeit Schneehöhe (cm)
Sa, 04.12. 13:00 0
Sa, 04.12. 12:50 0
Sa, 04.12. 12:40 0
Sa, 04.12. 12:30 0
Sa, 04.12. 12:20 0
Sa, 04.12. 12:10 0
Sa, 04.12. 12:00 0
Sa, 04.12. 11:30 0
Sa, 04.12. 11:00 0
Sa, 04.12. 10:30 0
Sa, 04.12. 10:00 0
Link zu dieser Seite / Seite empfehlen

Das Wetter in ...